Погода в Тюмени

Погода в Тюмени : погода сейчас, прогноз погоды и архив. Всё, что Вы хотите узнать о погоде в Тюмени!

Хотите узнать прогноз погоды в Тюмени? Тогда Вам сюда: Погода в Тюмени

Поиск расширенной информации на нашем сайте:

Другие новости

Новости СМИ2

Главная страница сайта

Новости сайта

03.07.2017

Напоминаем, что на нашем специализированном сайте Метеоцентр.Азия вы можете получить высокодетализированные автоматические прогнозы погоды по пунктам России, СНГ и мира в авиационном формате (включающие направление и скорость ветра, видимость, явления погоды, количество и форму облачности, нижнюю и верхнюю границу облачности).


Погода в Тюмени - сегодня

Время (UTC), дата Ветер
(°,м/с) 
Видим.   Явления Облачность Т
(°С)
Тd
(°С)
f(%) Тe
(°С)
Pmin
(гПа)
dP
(гПа)
Po
(мм)
O2
(г/м3)
Тmin Tmax R s Состояние
почвы
18 19.10.17 150 (ЮВ) 24000 м  слаб. ливневой дождь  10/10 600 м кучево-дожд. 
[Cb cap]
+4.6 +3.9 95 +3  996.5  -2.3  738  292           
21 19.10.17 200 (Ю) 50000 м  {ливн. осадки}  10/0 средняя, верхняя 
[Ac As|Ci sp]
+5.1 +4.6 97 +4  995.5  -1  737  291           
00 20.10.17 220 (ЮЗ) 50000 м  {ливн. осадки}  3/0 средняя 
[Ac trans]
+3.1 +1.9 92 +2  995.9  0.3  738  294           
03 20.10.17 210 (ЮЗ) 4000 м    3/3 600 м 
[Sc]
+1.8 +0.6 92 996.5  0.6  738  295  +1.8       
06 20.10.17 230 (ЮЗ) 6{12}  4000 м    10/9 800 м верхняя 
[Cu hum|Ci fib]
+4.5 -0.4 70 +2  996.4  738  293           
09 20.10.17 230 (ЮЗ) 6-13{14}  4000 м    9/9 750 м 
[Cu hum]
+5.9 -1.6 59 +4  996.6  0.2  738  291           
12 20.10.17 240 (ЮЗ) 5{14}  4000 м    10/10 800 м 
[Sc]
+5.5 -1.8 59 +3  997.9  1.2  739  292           
15 20.10.17 250 (З) 6-11{15}  50000 м    10/10 600 м 
[Sc]
+4.4 -3.3 57 +2  998.7  0.8  740  294    +6.2       
18 20.10.17 250 (З) 5{12}  50000 м    9/0 средняя 
[Ac und]
+2.7 -3.8 62 999.6  0.8  740  296           
21 20.10.17 250 (З) 4{11}  50000 м    10/10 900 м 
[Sc]
+1.5 -4.4 65 -1  1000.6  0.9  741  297           
00 21.10.17 250 (З) 4{10}  50000 м    10/10 870 м 
[Sc]
+0.6 -5.1 66 -2  1001.4  0.8  742  299           
03 21.10.17 250 (З) 4{11}  4000 м    10/10 600 м 
[Sc]
+0.1 -4.9 69 -2  1002.7  1.2  743  300  +0.1         
06 21.10.17 270 (З) 4{10}  4000 м  {ливн. осадки}  10/10 600 м 
[Sc]
+0.1 -5.9 64 -2  1004.4  1.7  744  300  -0.1         
09 21.10.17 260 (З) 4{12}  4000 м  слаб. ливневой снег  10/8 600 м кучево-дожд., средняя 
[Cb cap|Ac trans]
+0.5 -5.6 64 -2  1005.6  1.2  745  300           
12 21.10.17 270 (З) 4000 м  {ливн. осадки}  10/0 средняя 
[Ac As]
+0.6 -7.3 55 -1  1006.6  746  300           
15 21.10.17 240 (ЮЗ) 50000 м    9/0 средняя 
[Ac trans]
-0.7 -6.8 63 -2  1007.6  0.9  746  302    +0.9  0.0     
18 21.10.17 250 (З) 50000 м    8/0 средняя 
[Ac trans]
-2.5 -5.4 80 -5  1008.3  0.6  747  304           
21 21.10.17 250 (З) 50000 м    10/0 средняя 
[Ac As]
-2.1 -5.7 76 -4  1008.7  0.5  747  304           
00 22.10.17 230 (ЮЗ) 50000 м    5/0 средняя 
[Ac trans]
-3.9 -6.7 81 -5  1009.7  0.9  748  306           
03 22.10.17 230 (ЮЗ) 4000 м    3/0 средняя, верхняя 
[Ac trans|Ci fib]
-4.5 -7.1 82 -6  1010.6  0.8  748  307  -4.7         
06 22.10.17 240 (ЮЗ) 4000 м    1/1 600 м 
[Cu hum]
-0.4 -5.9 66 -3  1011.2  0.8  749  303           
09 22.10.17 230 (ЮЗ) 4000 м    8/8 600 м кучево-дожд. 
[Cb cap]
+0.3 -7 58 -2  1012  0.8  749  302           
12 22.10.17 240 (ЮЗ) 4000 м  в посл. час ливневой снег  8/3 600 м кучево-дожд., средняя 
[Cb cap|Ac cast]
-0.5 -6.6 63 -1  1013.2  1.2  750  304           
15 22.10.17 200 (Ю) 50000 м    ясно 
-3.7 -8.6 69 -3  1014.5  1.2  751  308    +0.8  0.0     
18 22.10.17 200 (Ю) 50000 м    ясно 
-4.8 -7.8 79 -4  1015.5  0.9  752  309           
Время (UTC), дата Ветер
(°,м/с) 
Видим.   Явления Облачность Т
(°С)
Тd
(°С)
f(%) Тe
(°С)
Pmin
(гПа)
dP
(гПа)
Po
(мм)
O2
(г/м3)
Тmin Tmax R s Состояние
почвы

Для получения пояснительной информации подведите курсор к названию столбца.

ПОГОДА в Тюмени - архив

Всё, что Вы хотите узнать о погоде в Тюмени - удобно и подробно!

Выберите нужную дату (начиная с 1 января 2015* года) и нажмите кнопку "Найти".
Будут отображены архивные сводки погоды по пункту Тюмень, начиная с указанной даты.


Отображать данные в формате CSV (для использования в таблицах Excel)


Внимание! Наш архив погоды предназначен исключительно для личного некоммерческого использования в познавательных целях. Если Вам необходимы официальные справки о состоянии погоды (для производственных, юридических, коммерческих и т.п. целей), обращайтесь в органы Росгидромета.

*Примечание: данная дата относится к архиву по метеостанциям СССР (Россия, СНГ, Балтия).
Архив по метеостанциям Зарубежной Европы и Азии (кроме Китая) хранится 10 дней, по другим регионам земного шара (Китай, Африка, Америка, Австралия, Океания) - 1 день.

Тюмень - район местоположения метеостанции


Название, широта, долгота, высота метеостанции:
Тюмень 57.1°ш. 65.4°д. 102 м над ур. моря [Российская Федерация]

Дополнительная информация

В oтличие oт бoльшинства пoгoдных сайтoв мы публикуем пoдрoбную метеoинфoрмацию в детальнoм прoфессиoнальнoм фoрмате.

Характеристики температуры и влажнoсти вoздуха измеряются на высoте 2 м в тени вдали oт зданий и деревьев.
Скoрoсть ветра измеряется на высoте 10 м (на урoвне рoста челoвека скoрoсть ветра ниже в 1.5-2 раза). Если метеoстанция нахoдится в гoрoде или в лесу, тo скoрoсть ветра занижена на 2-4 м/с пo сравнению с oткрытым местoм. Скoрoсть ветра над акватoриями крупных рек и oзёр, а также на вершинах хoлмoв на 2-5 м/с выше, чем в oбычных услoвиях.
Атмoсфернoе давление в разных тoчках местнoсти мoжет значительнo oтличаться oт давления на метеoстанции, в зависимoсти oт услoвий рельефа (при пoдъёме на 10 м давление пoнижается примернo на 1 мм рт.ст.).